EW2842 Weather Reports


Display with metric or nautical units.
time (UTC)temp
F
wind
direction
speed
MPH
gust
MPH
rain 1hr
in
rain 24hr
in
rain mn
in
humidity
%
barometer
mb
20260506061503 45 108 3.0 8.0 0.02 0.02 0.02 92 1015.4
20260506061003 45 110 2.0 8.0 0.01 0.01 0.01 92 1015.3
20260506060503 45 97 2.0 10.0 0.01 0.01 0.01 92 1015.3
20260506051219 46 97 2.0 8.0 0.00 0.00 0.00 88 1015.3
20260506050503 46 101 3.0 7.0 0.00 0.00 0.00 87 1015.2
20260506050217 46 103 3.0 7.0 0.00 0.00 0.00 87 1015.3
20260506045003 46 108 3.0 11.0 0.00 0.00 0.00 86 1015.2
20260506044503 46 107 3.0 9.0 0.00 0.00 0.00 86 1015.2
20260506044217 46 104 3.0 10.0 0.00 0.00 0.00 86 1015.3
20260506043503 46 102 3.0 11.0 0.00 0.00 0.00 86 1015.3
20260506043003 46 104 3.0 7.0 0.00 0.00 0.00 86 1015.3
20260506042503 46 105 3.0 8.0 0.00 0.00 0.00 86 1015.3
20260506042003 46 104 3.0 8.0 0.00 0.00 0.00 86 1015.3
20260506041503 46 107 3.0 10.0 0.00 0.00 0.00 86 1015.3
20260506041003 46 105 3.0 10.0 0.00 0.00 0.00 86 1015.4
20260506040716 46 104 3.0 10.0 0.00 0.00 0.00 86 1015.4
20260506040003 46 105 3.0 8.0 0.00 0.00 0.00 87 1015.5
20260506035503 46 102 2.0 7.0 0.00 0.00 0.00 87 1015.4
20260506035003 46 97 2.0 8.0 0.00 0.00 0.00 87 1015.4
20260506034716 46 91 2.0 8.0 0.00 0.00 0.00 88 1015.5
20260506034003 46 98 2.0 8.0 0.00 0.00 0.00 88 1015.6
20260506033718 46 98 2.0 8.0 0.00 0.00 0.00 88 1015.6
20260506033004 46 103 2.0 8.0 0.00 0.00 0.00 88 1015.6
20260506032503 46 106 3.0 7.0 0.00 0.00 0.00 88 1015.5
20260506032003 46 99 3.0 7.0 0.00 0.00 0.00 88 1015.7
20260506031503 46 97 2.0 8.0 0.00 0.00 0.00 89 1015.7
20260506031003 46 92 2.0 8.0 0.00 0.00 0.00 89 1015.7
20260506030503 46 89 2.0 12.0 0.00 0.00 0.00 89 1015.7
20260506030003 46 85 2.0 12.0 0.00 0.00 0.00 89 1015.8
20260506025503 46 86 2.0 7.0 0.00 0.00 0.00 89 1015.8
20260506025003 45 86 1.0 7.0 0.00 0.00 0.00 90 1015.8
20260506024719 45 94 2.0 5.0 0.00 0.00 0.00 90 1015.9
20260506024003 45 141 2.0 4.0 0.00 0.00 0.00 89 1015.9
20260506023718 45 146 1.0 4.0 0.00 0.00 0.00 89 1015.9
20260506023003 45 139 1.0 5.0 0.00 0.00 0.00 89 1015.9
20260506022503 45 106 1.0 5.0 0.00 0.00 0.00 89 1015.9
20260506022004 46 106 2.0 6.0 0.00 0.00 0.00 88 1015.8
20260506021504 46 108 1.0 6.0 0.00 0.00 0.00 88 1015.7
20260506021003 46 102 2.0 6.0 0.00 0.00 0.00 87 1015.7
20260506020719 46 104 2.0 7.0 0.00 0.00 0.00 87 1015.7
20260506020003 46 104 3.0 9.0 0.00 0.00 0.00 86 1015.9
20260506015717 46 103 3.0 9.0 0.00 0.00 0.00 86 1015.7
20260506015218 46 99 2.0 9.0 0.00 0.00 0.00 86 1015.7
20260506014503 47 91 2.0 9.0 0.00 0.00 0.00 85 1015.9
20260506014003 47 91 2.0 9.0 0.00 0.00 0.00 85 1015.9
20260506013503 47 110 2.0 7.0 0.00 0.00 0.00 84 1015.9
20260506013003 47 109 2.0 7.0 0.00 0.00 0.00 84 1016.0
20260506012503 47 97 2.0 5.0 0.00 0.00 0.00 84 1016.0
20260506012003 47 82 2.0 6.0 0.00 0.00 0.00 84 1016.0
20260506011503 47 85 2.0 7.0 0.00 0.00 0.00 84 1016.1
20260506011003 48 92 2.0 7.0 0.00 0.00 0.00 84 1016.1
20260506010503 48 93 2.0 7.0 0.00 0.00 0.00 83 1016.2
20260506010216 48 95 2.0 7.0 0.00 0.00 0.00 83 1016.2
20260506005503 47 69 1.0 4.0 0.00 0.00 0.00 82 1016.2
20260506005003 47 62 2.0 5.0 0.00 0.00 0.00 82 1016.1
20260506004504 47 64 2.0 5.0 0.00 0.00 0.00 82 1016.1
20260506004003 47 44 1.0 3.0 0.00 0.00 0.00 81 1016.2
20260506003503 47 44 1.0 3.0 0.00 0.00 0.00 81 1016.2
20260506003003 47 44 0.0 2.0 0.00 0.00 0.00 81 1016.3
20260506002719 47 29 1.0 3.0 0.00 0.00 0.00 81 1016.3
20260506002215 47 9 1.0 3.0 0.00 0.00 0.00 80 1016.3
20260506001503 47 351 0.0 3.0 0.00 0.00 0.00 80 1016.4
20260506001218 47 5 0.0 3.0 0.00 0.00 0.00 80 1016.3
20260506000719 47 1 1.0 4.0 0.00 0.00 0.00 80 1016.3
20260506000003 47 3 1.0 4.0 0.00 0.00 0.00 80 1016.4
20260505235716 47 19 0.0 2.0 0.00 0.00 0.00 80 1016.3
20260505235003 47 65 0.0 2.0 0.00 0.00 0.00 79 1016.4
20260505234503 46 360 1.0 4.0 0.00 0.00 0.00 79 1016.4
20260505234003 46 309 1.0 4.0 0.00 0.00 0.00 79 1016.5
20260505233503 46 316 1.0 5.0 0.00 0.00 0.00 79 1016.4
20260505233003 46 331 1.0 5.0 0.00 0.00 0.00 79 1016.4
20260505232718 46 335 1.0 5.0 0.00 0.00 0.00 79 1016.4
20260505232219 46 334 1.0 5.0 0.00 0.00 0.00 78 1016.5
20260505231503 46 326 1.0 4.0 0.00 0.00 0.00 78 1016.5
20260505231003 46 296 1.0 3.0 0.00 0.00 0.00 79 1016.6
20260505230503 46 282 1.0 4.0 0.00 0.00 0.00 79 1016.5
20260505230004 46 313 1.0 4.0 0.00 0.00 0.00 79 1016.5
20260505225504 46 324 1.0 4.0 0.00 0.00 0.00 79 1016.4
20260505225003 46 305 1.0 3.0 0.00 0.00 0.00 79 1016.6
20260505224503 46 298 1.0 4.0 0.00 0.00 0.00 78 1016.7
20260505224003 46 300 1.0 4.0 0.00 0.00 0.00 78 1016.7
20260505223503 46 299 1.0 3.0 0.00 0.00 0.00 78 1016.6
20260505223003 46 295 1.0 3.0 0.00 0.00 0.00 78 1016.6
20260505222503 46 313 1.0 5.0 0.00 0.00 0.00 77 1016.7
20260505222219 46 326 1.0 5.0 0.00 0.00 0.00 77 1016.7
20260505221503 46 345 2.0 5.0 0.00 0.00 0.00 77 1016.7
20260505221217 46 347 2.0 5.0 0.00 0.00 0.00 77 1016.6
20260505220503 46 329 2.0 6.0 0.00 0.00 0.00 76 1016.7
20260505220003 46 317 2.0 6.0 0.00 0.00 0.00 76 1016.6
20260505215503 46 330 2.0 9.0 0.00 0.00 0.00 76 1016.6
20260505215003 47 327 2.0 9.0 0.00 0.00 0.00 76 1016.6
20260505214503 47 324 3.0 8.0 0.00 0.00 0.00 76 1016.6
20260505214003 47 321 3.0 8.0 0.00 0.00 0.00 76 1016.7
20260505213503 47 318 3.0 9.0 0.00 0.00 0.00 75 1016.7
20260505213003 47 322 3.0 9.0 0.00 0.00 0.00 75 1016.7
20260505212503 47 311 2.0 8.0 0.00 0.00 0.00 75 1016.7
20260505212003 47 300 2.0 7.0 0.00 0.00 0.00 75 1016.7
20260505211720 47 307 3.0 12.0 0.00 0.00 0.00 75 1016.7
20260505211003 47 318 4.0 12.0 0.00 0.00 0.00 75 1016.6
20260505210503 47 322 3.0 8.0 0.00 0.00 0.00 75 1016.6
20260505210003 47 325 3.0 8.0 0.00 0.00 0.00 75 1016.5
20260505205719 48 331 3.0 9.0 0.00 0.00 0.00 75 1016.6
20260505205003 48 322 4.0 9.0 0.00 0.00 0.00 75 1016.5
20260505204503 48 318 3.0 8.0 0.00 0.00 0.00 75 1016.6
20260505204003 48 323 3.0 8.0 0.00 0.00 0.00 76 1016.5
20260505203503 48 323 3.0 7.0 0.00 0.00 0.00 76 1016.5
20260505203216 48 330 3.0 7.0 0.00 0.00 0.00 76 1016.4
20260505202503 48 323 3.0 11.0 0.00 0.00 0.00 76 1016.4
20260505202003 48 323 4.0 11.0 0.00 0.00 0.00 75 1016.4
20260505201503 48 327 4.0 11.0 0.00 0.00 0.00 75 1016.4
20260505201216 48 327 4.0 11.0 0.00 0.00 0.00 75 1016.4
20260505200503 49 329 4.0 11.0 0.00 0.00 0.00 73 1016.3
20260505200003 49 332 4.0 11.0 0.00 0.00 0.00 72 1016.3
20260505195503 49 328 4.0 13.0 0.00 0.00 0.00 72 1016.2
20260505195003 49 323 4.0 13.0 0.00 0.00 0.00 73 1016.3
20260505194717 49 321 4.0 13.0 0.00 0.00 0.00 72 1016.2
20260505194003 49 324 4.0 13.0 0.00 0.00 0.00 72 1016.1
20260505193503 50 319 4.0 13.0 0.00 0.00 0.00 72 1016.1
20260505193216 50 316 4.0 9.0 0.00 0.00 0.00 72 1016.1
20260505192503 50 327 4.0 13.0 0.00 0.00 0.00 72 1016.1
20260505192218 50 328 4.0 13.0 0.00 0.00 0.00 72 1016.1
20260505191503 50 319 4.0 12.0 0.00 0.00 0.00 71 1016.0
20260505191003 51 313 4.0 12.0 0.00 0.00 0.00 72 1015.9
20260505190503 51 326 5.0 12.0 0.00 0.00 0.00 71 1015.9
20260505190218 51 327 5.0 12.0 0.00 0.00 0.00 71 1015.9
20260505185503 51 327 4.0 11.0 0.00 0.00 0.00 71 1016.0
20260505185003 51 330 5.0 13.0 0.00 0.00 0.00 71 1015.8
20260505184503 51 328 5.0 13.0 0.00 0.00 0.00 71 1016.0
20260505184003 52 327 4.0 10.0 0.00 0.00 0.00 71 1015.9
20260505183503 52 322 4.0 11.0 0.00 0.00 0.00 72 1015.8
20260505183003 52 327 5.0 14.0 0.00 0.00 0.00 72 1015.9
20260505182503 52 333 4.0 14.0 0.00 0.00 0.00 72 1015.9
20260505182003 52 335 4.0 10.0 0.00 0.00 0.00 72 1015.8
20260505181503 52 342 4.0 13.0 0.00 0.00 0.00 71 1016.0
20260505181003 53 338 4.0 13.0 0.00 0.00 0.00 69 1015.9
20260505180503 53 335 4.0 13.0 0.00 0.00 0.00 68 1015.9
20260505180003 54 337 4.0 13.0 0.00 0.00 0.00 67 1015.8
20260505175503 54 337 4.0 11.0 0.00 0.00 0.00 67 1015.9
20260505175003 54 345 4.0 11.0 0.00 0.00 0.00 66 1015.9
20260505174503 54 351 4.0 12.0 0.00 0.00 0.00 67 1015.9
20260505174003 54 345 4.0 12.0 0.00 0.00 0.00 66 1015.9
20260505173503 54 349 4.0 11.0 0.00 0.00 0.00 66 1016.0
20260505173219 54 351 4.0 11.0 0.00 0.00 0.00 65 1015.9
20260505172716 54 355 4.0 10.0 0.00 0.00 0.00 64 1015.9
20260505172003 55 354 4.0 14.0 0.00 0.00 0.00 64 1016.0
20260505171503 55 343 4.0 14.0 0.00 0.00 0.00 64 1016.0
20260505171219 55 341 4.0 14.0 0.00 0.00 0.00 64 1016.0
20260505170503 55 348 4.0 12.0 0.00 0.00 0.00 63 1016.0
20260505170003 56 348 3.0 10.0 0.00 0.00 0.00 62 1015.9
20260505165718 56 345 3.0 10.0 0.00 0.00 0.00 62 1016.0
20260505165003 56 7 3.0 13.0 0.00 0.00 0.00 64 1015.9
20260505164503 56 7 3.0 9.0 0.00 0.00 0.00 64 1015.9
20260505164003 55 344 4.0 13.0 0.00 0.00 0.00 65 1015.9
20260505163718 55 343 4.0 13.0 0.00 0.00 0.00 65 1015.8
20260505163003 56 1 3.0 8.0 0.00 0.00 0.00 63 1015.9
20260505162716 56 13 3.0 10.0 0.00 0.00 0.00 63 1015.9
20260505162216 56 5 4.0 12.0 0.00 0.00 0.00 63 1016.0
20260505161718 56 357 4.0 12.0 0.00 0.00 0.00 61 1016.0
20260505161003 56 9 4.0 11.0 0.00 0.00 0.00 61 1016.0
20260505160503 56 354 3.0 10.0 0.00 0.00 0.00 61 1015.9
20260505153003 55 331 4.0 11.0 0.00 0.00 0.00 61 1016.0
20260505152503 55 326 4.0 11.0 0.00 0.00 0.00 62 1016.0
20260505152003 55 338 4.0 12.0 0.00 0.00 0.00 61 1016.1
20260505151717 56 342 4.0 12.0 0.00 0.00 0.00 62 1016.1
20260505151218 56 331 3.0 12.0 0.00 0.00 0.00 62 1016.1
20260505150503 56 333 3.0 11.0 0.00 0.00 0.00 62 1016.0
20260505140503 56 354 4.0 12.0 0.00 0.00 0.00 58 1016.3
20260505125003 56 5 4.0 10.0 0.00 0.00 0.00 67 1016.3
20260505124503 55 352 4.0 12.0 0.00 0.00 0.00 66 1016.3
20260505124003 55 350 5.0 12.0 0.00 0.00 0.00 66 1016.3
20260505123503 55 328 4.0 12.0 0.00 0.00 0.00 65 1016.3
20260505123003 55 326 4.0 11.0 0.00 0.00 0.00 62 1016.3
20260505122503 55 354 4.0 11.0 0.00 0.00 0.00 63 1016.4
20260505122003 56 347 5.0 15.0 0.00 0.00 0.00 63 1016.3
20260505121503 54 332 5.0 15.0 0.00 0.00 0.00 63 1016.3
20260505121003 54 339 5.0 12.0 0.00 0.00 0.00 63 1016.3
20260505120718 54 356 5.0 11.0 0.00 0.00 0.00 60 1016.3
20260505120004 54 31 5.0 12.0 0.00 0.00 0.00 61 1016.3
20260505115503 54 23 5.0 14.0 0.00 0.00 0.00 63 1016.3
20260505115003 54 14 4.0 14.0 0.00 0.00 0.00 61 1016.3
20260505114503 55 4 4.0 11.0 0.00 0.00 0.00 66 1016.3
20260505114003 54 360 4.0 13.0 0.00 0.00 0.00 65 1016.3
20260505113504 54 1 4.0 13.0 0.00 0.00 0.00 66 1016.3
20260505113003 55 338 4.0 12.0 0.00 0.00 0.00 69 1016.4
20260505112503 54 338 5.0 12.0 0.00 0.00 0.00 66 1016.4
20260505112003 54 358 5.0 13.0 0.00 0.00 0.00 69 1016.4
20260505111503 54 349 5.0 13.0 0.00 0.00 0.00 70 1016.4
20260505111003 54 337 4.0 11.0 0.00 0.00 0.00 69 1016.5
20260505110718 54 333 4.0 10.0 0.00 0.00 0.00 69 1016.5
20260505102003 53 348 4.0 13.0 0.00 0.00 0.00 71 1016.5
20260505101503 53 344 5.0 13.0 0.00 0.00 0.00 70 1016.5
20260505101003 52 338 4.0 10.0 0.00 0.00 0.00 69 1016.6
20260505100503 53 339 4.0 13.0 0.00 0.00 0.00 65 1016.6
20260505100003 52 337 4.0 13.0 0.00 0.00 0.00 68 1016.5
20260505095503 53 340 3.0 12.0 0.00 0.00 0.00 68 1016.6
20260505095003 53 352 3.0 12.0 0.00 0.00 0.00 72 1016.6
20260505094503 52 357 4.0 12.0 0.00 0.00 0.00 75 1016.5
20260505094003 52 2 4.0 12.0 0.00 0.00 0.00 74 1016.6
20260505093503 52 349 4.0 12.0 0.00 0.00 0.00 74 1016.6
20260505093003 51 333 4.0 12.0 0.00 0.00 0.00 75 1016.5
20260505092503 52 324 4.0 12.0 0.00 0.00 0.00 75 1016.6
20260505092003 52 325 4.0 12.0 0.00 0.00 0.00 74 1016.5
20260505091503 52 343 4.0 12.0 0.00 0.00 0.00 76 1016.5
20260505091003 52 349 3.0 12.0 0.00 0.00 0.00 76 1016.5
20260505090717 52 2 3.0 12.0 0.00 0.00 0.00 76 1016.5
20260505090003 52 351 3.0 9.0 0.00 0.00 0.00 72 1016.5
20260505085503 51 346 4.0 12.0 0.00 0.00 0.00 77 1016.3
20260505085003 51 348 3.0 12.0 0.00 0.00 0.00 78 1016.4
20260505084717 51 351 3.0 11.0 0.00 0.00 0.00 78 1016.4
20260505084003 51 335 4.0 14.0 0.00 0.00 0.00 80 1016.5
20260505083719 51 330 4.0 14.0 0.00 0.00 0.00 80 1016.4
20260505083216 51 342 4.0 14.0 0.00 0.00 0.00 79 1016.4
20260505082503 51 320 4.0 10.0 0.00 0.00 0.00 80 1016.4
20260505082003 50 299 3.0 9.0 0.00 0.00 0.00 80 1016.4
20260505081503 51 311 3.0 10.0 0.00 0.00 0.00 82 1016.4
20260505081215 51 319 3.0 10.0 0.00 0.00 0.00 82 1016.5
20260505080503 51 309 2.0 10.0 0.00 0.00 0.00 82 1016.4
20260505080218 51 314 2.0 6.0 0.00 0.00 0.00 83 1016.3
20260505075503 50 330 2.0 10.0 0.00 0.00 0.00 85 1016.3
20260505075003 50 337 3.0 12.0 0.00 0.00 0.00 85 1016.3
20260505074503 49 339 3.0 12.0 0.00 0.00 0.00 85 1016.2
20260505074003 49 321 3.0 9.0 0.00 0.00 0.00 85 1016.3
20260505073503 49 325 3.0 10.0 0.00 0.00 0.00 85 1016.2
20260505073003 49 332 4.0 10.0 0.00 0.00 0.00 86 1016.2
20260505072503 49 330 5.0 10.0 0.00 0.00 0.00 86 1016.3
20260505072003 49 322 4.0 10.0 0.00 0.00 0.00 85 1016.3
20260505071503 50 308 4.0 10.0 0.00 0.00 0.00 85 1016.3
20260505071003 50 321 4.0 11.0 0.00 0.00 0.00 84 1016.2
20260505070503 50 334 4.0 11.0 0.00 0.00 0.00 86 1016.2
20260505070003 50 330 3.0 9.0 0.00 0.00 0.00 87 1016.1
20260505065503 50 329 2.0 6.0 0.00 0.00 0.00 89 1016.1
20260505065219 50 323 2.0 6.0 0.00 0.00 0.00 89 1016.0
20260505064503 50 299 2.0 5.0 0.00 0.00 0.00 90 1016.1
20260505064003 49 301 2.0 8.0 0.00 0.00 0.00 91 1016.1
20260505063503 49 305 2.0 8.0 0.00 0.00 0.00 92 1016.1
20260505063003 49 303 3.0 8.0 0.00 0.00 0.00 92 1016.1
20260505062503 48 298 3.0 8.0 0.00 0.00 0.00 92 1015.9
20260505062003 48 291 2.0 8.0 0.00 0.00 0.00 93 1015.9